Terug naar catalogus

HAIYANG 2A

ActiefWetenschapSSO
NORAD 37781·PAYLOAD·🇨🇳 China

Gelanceerd Aug 15, 2011 vanaf Taiyuan Satellite Launch Center

Loading…

Volgende Passages (komende 24 uur)

TLE

VersSource: Space-Track

Epoch: Sep 14, 2026, 14:39 UTC

1 37781U 11043A   26257.61077131  .00000120  00000-0  18086-3 0  9992
2 37781  99.3446 258.0902 0003622 123.4993 236.6501 13.71464640758923

Volg HAIYANG 2A in realtime met AllMySat

Download on the App Store